SCP
0 0 0 0 0 0 0 0 0 0 0 0 0 0 0 0 0 0 0 0 0 0 0 0 0 0 0 0 0 0 0 1 1 1 1 1 1 1 0 0 0 0 0 0
0 0 0 0 0 0 0 0 0 0 0 0 0 0 0 0 0 0 0 0 0 0 0 0 0 0 0 0 0 0 0 0 1 1 1 1 1 1 0 0 0 0 0 0
0 0 0 0 0 0 0 0 0 0 0 0 0 0 0 0 0 0 0 0 0 0 0 0 0 0 0 0 0 0 0 0 1 1 1 1 1 1 1 1 0 0 0 0
0 0 0 0 0 0 0 0 0 0 0 0 0 0 0 0 0 0 0 0 0 0 0 0 0 0 0 0 0 0 0 0 0 1 1 1 1 1 1 1 1 0 0 0
0 0 0 0 0 0 0 0 0 0 0 0 0 0 0 0 0 0 0 0 0 0 0 0 0 0 0 0 0 0 0 0 0 0 0 1 1 1 1 1 1 0 0 0
0 0 0 0 0 0 0 0 0 0 0 0 0 0 0 0 0 0 0 0 0 0 0 0 0 0 0 0 0 0 0 0 0 0 0 0 0 0 0 0 1 0 0 0
0 0 0 0 0 0 0 0 0 0 0 0 0 0 0 0 0 0 0 0 0 0 0 0 0 0 0 0 0 0 0 0 0 0 0 0 0 0 0 0 0 0 0 0
0 0 0 0 0 0 0 0 0 0 0 0 0 0 0 0 0 0 0 0 0 0 0 0 0 0 0 0 0 0 0 0 0 0 0 0 0 0 0 0 0 0 0 0
0 0 0 0 0 0 0 0 0 0 0 0 0 0 0 0 0 0 0 0 0 0 0 0 0 0 0 0 0 0 0 0 0 0 0 0 0 0 0 0 0 0 0 0
0 0 0 0 0 0 0 0 0 0 0 0 0 0 0 0 0 0 0 0 0 0 0 0 0 0 0 0 0 0 0 0 0 0 0 0 0 0 0 0 0 0 0 0
0 0 0 0 0 0 0 0 0 0 0 0 0 0 0 0 0 0 0 0 0 0 0 0 0 0 0 0 0 0 0 0 0 0 0 0 0 0 0 0 0 0 0 0
0 0 0 0 0 0 0 0 0 0 0 0 0 0 0 0 0 0 0 0 0 0 0 0 0 0 0 0 0 0 0 0 0 0 0 0 0 0 0 0 0 0 0 0
0 0 0 0 0 0 0 0 0 0 0 0 0 0 0 0 0 0 0 0 0 0 0 0 0 0 0 0 0 0 0 0 0 0 0 0 0 0 0 0 0 0 0 0
0 0 0 0 0 0 0 0 0 0 0 0 0 0 0 0 0 0 0 0 0 0 0 0 0 0 0 0 0 0 0 0 0 0 0 0 0 0 0 0 0 0 0 0
0 0 0 0 0 0 0 0 0 0 0 0 0 0 0 0 0 0 0 0 0 0 0 0 0 0 0 0 0 0 0 0 0 0 0 0 0 0 0 0 0 0 0 0
0 0 0 0 0 0 0 0 0 0 0 0 0 0 0 0 0 0 0 0 0 0 0 0 0 0 0 0 0 0 0 0 0 0 0 0 0 0 0 0 0 0 0 0
0 0 0 0 0 0 0 0 0 0 0 0 0 0 0 0 0 0 0 0 0 0 0 0 0 0 0 0 0 0 0 0 0 0 0 0 0 0 0 0 0 0 0 0
0 0 0 0 0 0 0 0 0 0 0 0 0 0 0 0 0 0 0 0 0 0 0 0 0 0 0 0 0 0 0 0 0 0 0 0 0 0 0 0 0 0 0 0
0 0 0 0 0 0 0 0 0 0 0 0 0 0 0 0 0 0 0 0 0 0 0 0 0 0 0 0 0 0 0 0 0 0 0 0 0 0 0 0 0 0 0 0
0 0 0 0 0 0 0 0 0 0 0 0 0 0 0 0 0 0 0 0 0 0 0 0 0 0 0 0 0 0 0 0 0 0 0 0 0 0 0 0 0 0 0 0
0 0 0 0 0 0 0 0 0 0 0 0 0 0 0 0 0 0 0 0 0 0 0 0 0 0 0 0 0 0 0 0 0 0 0 0 0 0 0 0 0 0 0 0
0 0 0 0 0 0 0 0 0 0 0 0 0 0 0 0 0 0 0 0 0 0 0 0 0 0 0 0 0 0 0 0 0 0 0 0 0 0 0 0 0 0 0 0
0 0 0 0 0 0 0 0 0 0 0 0 0 0 0 0 0 0 0 0 0 0 0 0 0 0 0 0 0 0 0 0 0 0 0 0 0 0 0 0 0 0 0 0
0 0 0 0 0 0 0 0 0 0 0 0 0 0 0 0 0 0 0 0 0 0 0 0 0 0 0 0 0 0 0 0 0 0 0 0 0 0 0 0 0 0 0 0
0 0 0 0 0 0 0 0 0 0 0 0 0 0 0 0 0 0 0 0 0 0 0 0 0 0 0 0 0 0 0 0 0 0 0 0 0 0 0 0 0 0 0 0
0 0 0 0 0 0 0 0 0 0 0 0 0 0 0 0 0 0 0 0 0 0 0 0 0 0 0 0 0 0 0 0 0 0 0 0 0 0 0 0 0 0 0 0
Wind_Speed
1 3 4 7 7 5 4 3 4 5 3 2 6 8 9 6 4 6 6 5 5 6 5 2 3 3 3 2 3 3 3 2 2 1 1 1 1 1 1 1 1 1 2 2
3 4 6 3 4 3 3 4 4 4 2 2 4 9 8 7 6 7 7 6 6 4 2 2 2 2 3 3 3 3 3 3 2 2 2 1 1 0 1 1 1 2 2 2
6 4 3 4 4 4 4 6 5 4 3 2 3 8 6 5 4 4 4 5 4 5 4 3 2 2 2 2 3 3 3 3 2 2 1 2 1 1 0 1 1 2 2 2
4 3 2 3 4 5 6 4 4 3 0 3 1 5 7 4 4 5 5 4 4 3 3 3 2 2 2 2 2 2 2 2 2 2 2 3 2 2 2 2 2 2 2 2
4 2 3 4 5 5 4 2 3 2 2 2 2 4 9 2 4 6 5 4 3 2 3 3 2 2 2 1 1 1 1 1 1 1 2 3 2 1 1 1 1 1 1 1
3 2 3 4 2 3 3 3 3 3 2 4 6 5 8 4 6 4 3 2 3 2 2 1 1 2 1 1 1 1 1 1 0 0 1 2 2 2 1 1 1 1 1 1
2 2 1 2 2 1 3 4 2 3 1 7 3 5 10 6 4 4 4 3 2 2 3 2 2 1 1 1 2 1 1 0 0 0 1 2 2 3 3 2 2 2 2 2
4 4 3 2 4 5 5 6 6 6 5 4 2 7 7 4 2 2 2 3 2 2 2 2 2 1 0 0 1 1 1 1 1 1 1 1 1 1 1 2 2 2 2 3
5 4 1 1 1 5 5 4 3 4 1 2 6 6 7 1 0 1 2 2 2 2 2 2 1 1 1 1 0 0 0 1 1 1 1 1 1 1 1 1 1 2 2 2
2 2 2 2 0 0 3 4 4 4 4 4 6 5 5 4 4 2 2 2 2 1 1 1 1 0 0 0 0 0 0 1 1 1 1 1 2 2 1 1 2 2 2 2
1 2 1 1 4 6 3 3 3 3 4 5 4 7 5 5 5 5 4 3 3 2 2 1 1 0 0 1 1 1 1 1 2 2 2 2 2 2 1 2 2 2 2 2
1 2 2 5 3 1 3 5 6 5 5 4 3 8 3 3 3 4 4 3 2 2 2 2 1 0 1 1 1 1 1 2 2 2 2 2 2 2 2 3 3 3 3 3
2 3 1 3 2 1 2 2 3 3 3 4 5 8 2 1 0 1 2 2 2 2 1 0 0 0 0 0 1 1 1 2 2 2 2 3 3 3 3 4 4 3 3 3
2 3 5 7 5 3 4 4 4 4 5 6 9 8 4 3 2 2 1 2 2 2 1 1 0 1 1 1 1 1 2 2 2 2 2 3 3 3 4 4 4 4 3 3
3 2 3 4 2 2 5 6 6 8 8 8 8 8 8 5 4 3 2 2 1 1 0 1 1 1 2 2 2 2 2 2 2 2 3 3 4 4 4 4 4 4 4 4
2 2 1 3 3 3 5 7 8 9 8 10 8 10 6 3 1 1 1 2 2 1 1 1 2 2 2 3 3 3 3 3 3 2 3 4 3 4 4 4 4 4 4 4
2 4 2 4 3 3 8 9 10 8 7 8 11 10 3 2 3 3 3 3 3 2 2 2 2 2 3 3 3 3 3 3 3 3 3 4 3 4 4 4 4 4 4 4
5 4 2 1 2 7 8 2 6 7 6 7 6 4 2 4 3 2 1 2 2 2 3 3 2 2 2 2 3 3 3 3 3 3 4 4 4 4 5 4 4 4 4 4
5 6 3 3 4 9 9 3 4 5 6 5 7 5 3 2 1 1 0 0 2 2 2 2 2 2 2 2 2 3 3 3 3 4 4 4 4 5 5 5 4 4 4 4
2 3 4 4 4 8 8 3 2 2 6 3 4 4 2 1 2 4 1 1 2 2 1 1 1 1 1 2 2 2 3 3 4 5 5 5 5 5 5 5 5 4 4 4
3 3 5 6 6 11 7 2 2 4 7 2 3 3 3 4 5 3 2 2 2 2 2 2 1 1 2 2 2 2 3 4 5 5 5 5 5 5 5 4 4 4 4 4
8 7 7 5 6 11 3 4 6 6 1 1 2 3 4 4 3 2 1 2 2 3 3 3 2 3 3 2 2 3 4 5 5 5 5 5 5 5 4 4 4 3 3 3
8 9 8 10 10 4 4 5 4 2 2 2 2 2 3 3 3 2 1 1 2 2 3 3 3 3 3 3 3 3 5 5 5 5 5 5 5 4 4 3 3 3 3 3
5 3 4 5 7 4 4 3 2 2 3 2 2 2 2 3 3 2 1 1 2 2 3 3 3 3 4 4 4 4 5 5 4 5 5 5 4 4 4 3 3 2 2 3
7 5 4 7 5 3 5 6 4 3 1 1 0 1 2 2 2 2 1 1 2 2 3 3 3 3 5 5 5 5 4 4 5 5 5 4 4 3 3 3 3 3 3 3
7 8 9 9 7 7 6 5 4 4 3 3 2 1 1 1 2 1 1 1 2 2 3 3 3 4 5 5 5 5 4 4 4 4 4 3 3 3 3 3 4 6 5 7
Wind_Direction
102 104 197 208 199 188 169 186 232 246 253 214 236 256 264 260 249 252 249 244 240 243 247 221 203 189 171 163 159 166 167 172 150 144 157 174 212 249 266 239 226 221 229 215
76 227 227 197 185 175 187 213 244 277 290 236 265 270 264 251 238 232 231 234 235 244 257 229 198 177 178 182 185 180 179 180 184 185 184 180 169 228 244 251 239 236 233 220
188 228 205 173 181 195 222 215 223 241 322 331 317 296 272 268 254 250 239 227 227 217 220 221 207 190 180 187 197 195 198 197 197 175 123 88 70 44 32 286 256 247 236 221
221 255 187 182 211 193 231 224 204 205 244 278 197 282 277 258 275 257 247 236 230 221 204 201 191 187 197 214 215 203 195 202 196 163 154 161 183 205 228 239 245 271 251 221
227 204 185 207 221 190 208 177 183 193 184 276 240 239 278 283 263 259 250 242 235 215 191 191 189 189 199 208 199 195 146 141 155 172 188 188 208 229 245 276 253 269 273 243
242 241 205 204 204 176 149 84 55 55 89 257 222 205 270 237 228 242 247 237 222 205 177 149 112 87 62 42 46 63 101 88 79 165 208 209 215 221 229 260 248 268 281 267
286 277 246 158 142 137 133 114 46 351 317 248 217 213 249 243 229 214 208 208 201 175 150 129 101 75 55 44 37 34 71 23 328 222 238 240 235 223 224 232 235 251 272 270
195 253 225 196 180 179 184 161 172 198 222 268 247 231 250 257 240 187 164 162 150 150 146 144 150 145 143 55 33 37 32 340 325 291 277 270 261 250 253 252 251 248 255 259
188 236 286 230 236 154 164 195 175 139 101 274 257 268 287 270 349 110 122 123 154 174 162 158 156 156 158 126 97 73 337 330 318 295 298 302 291 277 270 275 273 270 283 286
174 219 275 286 46 224 164 152 123 146 173 244 272 252 241 222 216 205 189 194 211 209 180 158 152 188 207 153 138 45 332 286 306 317 306 313 301 290 289 285 285 291 292 300
174 175 268 271 202 194 157 158 155 154 177 180 253 264 233 208 196 195 208 208 206 203 190 192 214 238 95 49 42 27 354 348 343 329 325 331 321 318 317 297 284 282 289 290
161 138 220 244 259 245 187 182 160 173 223 208 225 266 280 192 190 185 202 210 201 189 183 189 193 106 57 38 19 11 349 335 321 321 328 323 325 328 322 312 307 302 290 288
144 121 60 336 315 334 247 216 195 166 154 187 205 259 313 76 130 192 196 207 186 178 170 121 91 91 289 304 320 329 329 321 326 328 322 322 322 320 314 312 313 309 300 294
119 153 185 206 227 199 235 232 199 171 196 218 225 248 276 274 272 283 254 217 182 177 165 152 243 274 293 295 299 316 320 320 329 326 313 309 307 304 305 309 310 305 300 291
113 194 231 259 273 225 234 232 208 210 214 216 236 238 249 241 240 247 223 191 169 171 236 247 269 287 298 308 313 319 320 324 325 321 311 303 311 313 312 312 308 306 301 294
124 173 202 279 274 265 267 250 225 228 229 237 257 263 257 255 234 267 218 177 187 212 242 268 298 310 309 308 312 317 311 313 317 304 300 308 315 315 311 308 306 305 304 304
170 151 161 256 300 352 269 228 209 216 218 209 231 244 254 267 261 242 218 195 210 233 255 270 277 281 293 298 306 298 298 309 311 305 308 314 312 310 309 308 307 303 300 301
162 152 160 202 68 239 246 230 202 215 232 224 238 251 236 240 261 255 187 188 241 266 263 269 275 285 297 307 316 317 316 319 317 313 313 315 312 305 307 308 304 303 302 294
185 162 156 164 218 270 287 255 180 199 253 232 232 254 276 287 301 281 322 227 245 264 269 260 261 275 292 300 315 323 320 322 321 317 315 314 310 303 303 300 300 304 301 296
132 152 156 166 194 237 251 246 205 149 265 243 208 228 234 118 250 259 321 343 331 331 320 309 328 328 309 316 333 321 313 313 309 308 307 306 301 295 290 290 295 300 293 290
157 176 191 194 220 255 253 240 131 183 248 238 190 202 191 203 226 259 323 340 343 343 341 347 351 328 313 328 331 309 306 301 307 313 309 304 300 295 291 294 297 300 300 303
180 180 195 176 209 250 219 144 186 218 223 168 198 206 209 228 247 271 303 325 341 350 352 355 347 334 338 343 329 307 302 310 319 314 308 304 304 303 303 301 303 306 304 303
203 194 190 195 216 238 170 187 206 180 193 208 212 230 215 226 239 260 275 293 324 340 345 350 344 335 338 342 335 308 312 323 322 316 307 304 306 309 309 300 301 308 308 300
237 210 195 237 251 239 223 219 217 204 208 213 208 213 199 218 229 244 255 299 325 335 340 345 343 331 329 336 334 319 320 326 318 307 305 306 306 310 313 307 299 293 291 292
210 181 202 240 255 269 244 225 220 212 190 186 247 224 208 204 236 254 263 291 307 322 335 337 328 317 318 327 324 325 325 326 317 308 304 305 303 303 307 309 298 292 287 285
192 186 193 224 214 207 227 215 195 186 204 211 211 259 301 200 223 262 270 288 304 314 329 329 325 321 321 326 322 325 325 322 313 307 307 302 300 303 307 310 313 312 308 312